CZ-7 R/B (49223 NORAD) Tracking and Keplerian Element Data

This shows tracking and keplerian element data for the satellite.

Feedback or suggestion? Click here.




ElementValue
Catalog49223
NameCZ-7 R/B
Epoch Orbit230
Epoch Day277.59154609
Epoch Year2021
RAAN328.6654
Inclination41.4444
Eccentricity0.0024664
Argument of Perigee289.962
Mean Anonmoly197.511
Mean Motion16.43289341
Decay Rate0.10296228
L11 49223U 21085B 21277.59154609 .10296228 83179-5 25774-3 0 9995
L22 49223 41.4444 328.6654 0024664 289.9620 197.5110 16.43289341 2305

Live tracking and technical data element details for CZ-7 R/B (NORAD 49223). CZ-7 R/B can be tracked NOW for your location showing map with azimuth and elevation plus other details from your city location.

Track the satellite on the map from your city or location and see movement details for azimuth, elevation, latitude, longitude, range, height, and movement on the map or in text.







IsCatalogInMostPopularTable: catalog: 49223, numindb: 6
Update: records affected: 1



GetName: 49223 CZ-7 R/B

Hit Count: updated at: Tue, 19 Oct 2021 09:29:09 GMT